This is the latest recevied weather packets stored in our database for station/object K1BWE-1. If no packets are shown the sender has not sent any weather packets the latest 10 day(s).
| Time | Temp. | Humidity | Pressure | Rain* | Wind** | Luminosity | Snow |
|---|---|---|---|---|---|---|---|
| 1778059595 | 10.56° C | 72% | 1015.9 hPa | 0 mm | - | 0 W/m² | - |
| 1778059291 | 10.56° C | 73% | 1015.8 hPa | 0 mm | - | 0 W/m² | - |
| 1778058989 | 10.56° C | 73% | 1016 hPa | 0 mm | - | 0 W/m² | - |
| 1778058687 | 11.11° C | 73% | 1015.9 hPa | 0 mm | - | 0 W/m² | - |
| 1778058385 | 11.11° C | 72% | 1015.5 hPa | 0 mm | - | 0 W/m² | - |
| 1778058081 | 11.11° C | 74% | 1015.9 hPa | 0 mm | - | 0 W/m² | - |
| 1778057778 | 10.56° C | 71% | 1015.8 hPa | 0 mm | - | 0 W/m² | - |
| 1778057474 | 11.11° C | 72% | 1015.8 hPa | 0 mm | - | 0 W/m² | - |
| 1778057171 | 11.11° C | 73% | 1015.9 hPa | 0 mm | - | 0 W/m² | - |
| 1778056867 | 10.56° C | 78% | 1015.9 hPa | 0 mm | - | 0 W/m² | - |
| 1778056564 | 10.56° C | 79% | 1015.6 hPa | 0 mm | - | 0 W/m² | - |
| 1778056262 | 11.11° C | 79% | 1015.8 hPa | 0 mm | - | 0 W/m² | - |
| 1778055958 | 11.11° C | 78% | 1016 hPa | 0 mm | - | 0 W/m² | - |
| 1778055654 | 11.11° C | 77% | 1016.2 hPa | 0 mm | - | 0 W/m² | - |
| 1778055352 | 11.11° C | 75% | 1016.2 hPa | 0 mm | - | 0 W/m² | - |
| 1778055049 | 11.67° C | 75% | 1016 hPa | 0 mm | - | 0 W/m² | - |
| 1778054747 | 11.67° C | 74% | 1016.2 hPa | 0 mm | - | 0 W/m² | - |
| 1778054444 | 11.67° C | 71% | 1016.3 hPa | 0 mm | - | 0 W/m² | - |
| 1778054142 | 12.22° C | 69% | 1016.2 hPa | 0 mm | - | 0 W/m² | - |
| 1778053838 | 12.22° C | 63% | 1016.1 hPa | 0 mm | - | 0 W/m² | - |
| 1778053536 | 11.67° C | 67% | 1016.1 hPa | 0 mm | - | 0 W/m² | - |
| 1778053233 | 12.22° C | 71% | 1016.2 hPa | 0 mm | - | 0 W/m² | - |
| 1778052931 | 12.78° C | 71% | 1016.3 hPa | 0 mm | - | 0 W/m² | - |
| 1778052628 | 12.22° C | 70% | 1016.4 hPa | 0 mm | - | 0 W/m² | - |
| 1778052325 | 12.22° C | 72% | 1016.1 hPa | 0 mm | - | 0 W/m² | - |
* Rain latest hour (hover to see other rain measurements)
** Current wind speed in m/s (hover to see current wind gust speed)